Flag for U.S.A. Weather past 2 weeks in Flint, Michigan, U.S.A.

Now
61 °F

Fog.


Feels Like: 61 °F
Forecast: 64 / 88 °F
Wind: No wind

Location: Bishop International Airport

Current Time: Sep 1, 2015 at 6:27:54 AM

Latest Report: Sep 1, 2015 at 6:02 AM


Visibility: 4 mi

Pressure: 30.08 "Hg

Humidity: 90%

Dew point: 58 °F

Location of FlintLocation

Historic Weather in Flint — Graph

°F

Flint temperature yesterday

Maximum temperature yesterday: 82 °F (at 3:53 PM)
Minimum temperature yesterday: 60 °F (at 5:00 AM)
Average temperature yesterday: 70 °F

Past Weeks' High & Low Weather Summary

 TemperatureHumidityPressure
High89 °F (Aug 17, 2:53 PM)94% (Aug 31, 7:04 AM)30.23 "Hg (Aug 31, 7:04 AM)
Low47 °F (Aug 28, 5:53 AM)39% (Aug 21, 3:53 PM)29.67 "Hg (Aug 20, 12:53 AM)
Average69 °F72%30.00 "Hg
* Reported Aug 17 5:53 AM — Sep 1 5:03 AM, Flint, Weather by CustomWeather, © 2015

Note: Actual official high and low records may vary slightly from our data, if they occured in-between our weather recording intervals... More about our weather records

Advertising

Flint weather history for previous 24 hours

 ConditionsComfort  
Time TempWeatherWind HumidityBarometerVisibility
5:03 AM
Tue, Sep 1
62 °FFog.No wind93%30.07 "Hg1 mi
4:02 AM62 °FFog.No wind90%30.07 "Hg1 mi
2:53 AM61 °FFog.No wind90%30.06 "Hg0 mi
1:59 AM63 °FFog.No wind90%30.08 "Hg3 mi
1:01 AM64 °FFog.No wind90%30.07 "Hg1 mi
12:00 AM66 °FFog.No wind90%30.07 "Hg1 mi
10:53 PM
Mon, Aug 31
67 °FClear.5 mph90%30.06 "Hg10 mi
9:53 PM68 °FFog.No wind90%30.05 "Hg3 mi
8:53 PM71 °FSunny.No wind84%30.04 "Hg9 mi
7:53 PM78 °FSunny.3 mph66%30.03 "Hg10 mi
6:53 PM81 °FSunny.6 mph58%30.04 "Hg10 mi
5:53 PM82 °FSunny.5 mph56%30.03 "Hg10 mi
4:53 PM82 °FSunny.8 mph58%30.03 "Hg10 mi
3:53 PM82 °FSunny.6 mph58%30.05 "Hg10 mi
2:53 PM79 °FSunny.7 mph60%30.06 "Hg9 mi
1:53 PM76 °FSunny.6 mph67%30.08 "Hg7 mi
12:53 PM72 °FOvercast.7 mph76%30.10 "Hg6 mi
11:53 AM70 °FLow clouds.6 mph81%30.11 "Hg6 mi
11:00 AM68 °FLow clouds.7 mph84%30.11 "Hg4 mi
9:53 AM67 °FFog.6 mph87%30.09 "Hg1 mi
8:53 AM66 °FFog.6 mph90%30.08 "Hg1 mi
7:53 AM65 °FFog.6 mph91%30.07 "Hg2 mi
7:04 AM64 °FFog.6 mph94%30.07 "Hg0 mi
Weather by CustomWeather, © 2015

See weather overviewHow to use our weather pages